Location: Ostrava
(49.8330°N, 18.2830°E)
Time: 14:31:58
(UTC+02:00)

Iridium 39 - Visible Passes

Search period start: 22 October 2014 00:00
Search period end: 31 October 2014 23:00
Orbit: 776 x 779 km, 86.4° (Epoch: 21 October)

Date Brightness Start Highest point End Pass type
(mag) Time Alt. Az. Time Alt. Az. Time Alt. Az.
22 Oct 8.3 03:40:35 16° N 03:40:35 16° N 03:41:39 10° N visible
23 Oct 8.7 03:07:26 13° NNE 03:07:26 13° NNE 03:08:02 10° N visible
23 Oct 8.4 04:47:55 11° NNW 04:47:55 11° NNW 04:48:05 10° NNW visible
24 Oct 8.5 04:14:44 11° NNW 04:14:44 11° NNW 04:15:02 10° N visible
25 Oct 8.7 03:41:33 11° N 03:41:33 11° N 03:41:42 10° N visible
